This is the latest recevied weather packets stored in our database for station/object W0VI. If no packets are shown the sender has not sent any weather packets the latest 10 day(s).
| Time | Temp. | Humidity | Pressure | Rain* | Wind** | Luminosity | Snow |
|---|---|---|---|---|---|---|---|
| 1777897393 | 15° C | 50% | 996.7 hPa | 0 mm | - | 65 W/m² | - |
| 1777897089 | 15° C | 49% | 996.8 hPa | 0 mm | - | 63 W/m² | - |
| 1777896785 | 15° C | 49% | 996.5 hPa | 0 mm | - | 57 W/m² | - |
| 1777896483 | 15° C | 48% | 996.6 hPa | 0 mm | - | 46 W/m² | - |
| 1777896180 | 15° C | 47% | 996.5 hPa | 0 mm | - | 38 W/m² | - |
| 1777895878 | 15° C | 46% | 996.3 hPa | 0 mm | - | 37 W/m² | - |
| 1777895575 | 15° C | 46% | 996.4 hPa | 0 mm | - | 36 W/m² | - |
| 1777895273 | 15° C | 46% | 996.1 hPa | 0 mm | - | 30 W/m² | - |
| 1777894970 | 15° C | 45% | 996.1 hPa | 0 mm | - | 31 W/m² | - |
| 1777894667 | 15° C | 45% | 995.9 hPa | 0 mm | - | 31 W/m² | - |
| 1777894364 | 15° C | 45% | 995.8 hPa | 0 mm | - | 26 W/m² | - |
| 1777894061 | 15° C | 45% | 995.3 hPa | 0 mm | - | 21 W/m² | - |
| 1777893757 | 15° C | 45% | 995.6 hPa | 0 mm | - | 17 W/m² | - |
| 1777893455 | 15° C | 44% | 995.4 hPa | 0 mm | - | 12 W/m² | - |
| 1777893151 | 15° C | 44% | 995.5 hPa | 0 mm | - | 8 W/m² | - |
| 1777892848 | 15° C | 44% | 995.5 hPa | 0 mm | - | 4 W/m² | - |
| 1777892544 | 15° C | 45% | 995.6 hPa | 0 mm | - | 2 W/m² | - |
| 1777892239 | 15° C | 44% | 995.6 hPa | 0 mm | - | 1 W/m² | - |
| 1777891936 | 15.56° C | 43% | 995.3 hPa | 0 mm | - | 0 W/m² | - |
| 1777891634 | 15.56° C | 43% | 995.5 hPa | 0 mm | - | 0 W/m² | - |
| 1777891330 | 15.56° C | 42% | 995.5 hPa | 0 mm | - | 0 W/m² | - |
| 1777891025 | 15.56° C | 42% | 995.7 hPa | 0 mm | - | 0 W/m² | - |
| 1777890720 | 15° C | 42% | 995.5 hPa | 0 mm | - | 0 W/m² | - |
| 1777890416 | 15° C | 42% | 995.3 hPa | 0 mm | - | 0 W/m² | - |
| 1777890112 | 15° C | 43% | 995.3 hPa | 0 mm | - | 0 W/m² | - |
* Rain latest hour (hover to see other rain measurements)
** Current wind speed in m/s (hover to see current wind gust speed)